Location: *
(38.3914°N, 75.0697°W)
Time: 06:38:04
(UTC+00:00)

STARLINK-1069 - Pass Details

Date: 17 February 2020
Orbit: 375 x 384 km, 53.0° (Epoch: 10 April)

Event Time Altitude Azimuth Distance (km) Brightness Sun altitude
Exits shadow 11:19:19 - 274° (W) 1,479 5.1 -6.5°
Reaches altitude 10° 11:19:40 10° 278° (W) 1,365 4.9 -6.4°
Maximum altitude 11:22:03 20° 330° (NNW) 917 4.4 -6.0°
Drops below altitude 10° 11:24:26 10° 21° (NNE) 1,373 5.8 -5.5°
Sets 11:26:49 0° 39° (NE) 2,227 7.1 -5.1°
